Tracking 30685 objects as of 17-Jun-2025
HD Live streaming from Space Station
objects crossing your sky now

NOAA 16 DEB

Track NOAA 16 DEB now!
10-day predictions


NORAD ID: 42397
Int'l Code: 2000-055SR
Perigee: 745.7 km
Apogee: 792.2 km
Inclination: 98.7 °
Period: 100.1 minutes
Semi major axis: 7139 km
RCS: Unknown
Launch date: September 21, 2000
Source: United States (US)
Launch site: AIR FORCE WESTERN TEST RANGE (AFWTR)

Note: This is SATELLITE DEBRIS
Your satellite tracking list
Your tracking list is empty




NASA's NSSDC Master Catalog

Two Line Element Set (TLE):
1 42397U 00055SR  25165.47053425  .00008490  00000-0  27455-2 0  9990
2 42397  98.7400 248.7963 0032537 307.5869  52.2365 14.39004235480716
Source of the keplerian elements: AFSPC